Flight Track Log - Related Links

Times and Time Zones

All times are in EDT time to prevent confusion due to time zone crossing. See the PDT4197 flight status page for this flight to view local times or setup timezone preferences in your user account.

Time Position Orientation Groundspeed Altitude Reporting Facility
EDT Latitude Longitude Course Direction KTS MPH feet Rate Location/Type
Mon 03:00:24 PM 35.6861 -77.3667 303° West 243 280 3,200  Level Washington Center
Mon 03:01:24 PM 35.7103 -77.4133 303° West 179 206 4,400 1,271 Climbing Washington Center
Mon 03:02:22 PM 35.7200 -77.4700 282° West 162 186 5,700 1,220 Climbing Washington Center
Mon 03:03:22 PM 35.7253 -77.5236 277° West 157 181 6,800 1,100 Climbing Washington Center
Mon 03:04:22 PM 35.7347 -77.5828 281° West 170 196 7,900 1,041 Climbing Washington Center
Mon 03:05:23 PM 35.7381 -77.6367 274° West 170 196 8,900 934 Climbing Washington Center
Mon 03:06:24 PM 35.7456 -77.6906 280° West 170 196 9,800 908 Climbing Washington Center
Mon 03:07:22 PM 35.7528 -77.7469 279° West 170 196 10,700 857 Climbing Washington Center
Mon 03:08:23 PM 35.7600 -77.8061 279° West 170 196 11,500 590 Climbing Washington Center
Mon 03:09:24 PM 35.7672 -77.8625 279° West 165 190 11,900 248 Climbing Washington Center
Mon 03:10:24 PM 35.7767 -77.9244 281° West 176 203 12,000 50 Climbing Washington Center
Mon 03:11:24 PM 35.8219 -77.9564 330° Northwest 169 194 12,000  Level Washington Center
Mon 03:12:22 PM 35.8631 -77.9833 332° Northwest 164 189 12,000  Level Washington Center
Mon 03:13:23 PM 35.9064 -78.0078 335° Northwest 164 189 12,000  Level Washington Center
Mon 03:14:30 PM 35.9453 -78.0472 321° Northwest 170 196 12,000  Level Washington Center
Mon 03:15:22 PM 35.9758 -78.0792 320° Northwest 169 194 12,000  Level Washington Center
Mon 03:16:22 PM 36.0042 -78.1211 310° West 159 183 12,000  Level Washington Center
Mon 03:17:23 PM 36.0283 -78.1578 309° West 159 183 12,000  Level Washington Center
Mon 03:18:23 PM 36.0692 -78.2028 318° Northwest 165 190 12,000  Level Washington Center
Mon 03:18:38 PM 36.0753 -78.2108 313° West 177 204 12,000  Level Washington Center
Mon 03:19:36 PM 36.1100 -78.2506 317° Northwest 175 201 12,000  Level Washington Center
Mon 03:20:34 PM 36.1403 -78.2875 315° West 168 193 12,000  Level Washington Center
Mon 03:21:34 PM 36.1517 -78.3394 285° West 143 165 12,000  Level Washington Center
Mon 03:22:35 PM 36.1525 -78.3933 271° West 143 165 12,000 -188 Level Washington Center
Mon 03:23:42 PM 36.1533 -78.4475 271° West 148 170 11,600 -516 Descending Washington Center
Mon 03:24:43 PM 36.1542 -78.4964 271° West 148 170 10,900 -645 Descending Washington Center
Mon 03:25:43 PM 36.1550 -78.5503 271° West 148 170 10,300 -474 Descending Washington Center
Mon 03:26:37 PM 36.1539 -78.5942 268° West 146 168 10,000 -157 Descending Washington Center
Mon 03:27:38 PM 36.1569 -78.6406 275° West 141 162 10,000  Level Washington Center
Mon 03:28:40 PM 36.1556 -78.6944 268° West 141 162 10,000  Level Washington Center
Mon 03:29:47 PM 36.1561 -78.7486 271° West 140 161 10,000  Level Washington Center
Mon 03:30:54 PM 36.1589 -78.8025 274° West 140 161 10,000  Level Washington Center
Mon 03:32:01 PM 36.1575 -78.8542 268° West 139 160 10,000  Level Washington Center
Mon 03:33:05 PM 36.1581 -78.9081 271° West 139 160 10,000  Level Washington Center
Mon 03:35:00 PM 36.1304 -79.0143 252° West  Level FlightAware Approximate
Mon 03:42:00 PM 36.0291 -79.4030 255° West  Level FlightAware Approximate
Mon 03:43:00 PM 36.0169 -79.4592 255° West  Level FlightAware Approximate
Mon 03:44:00 PM 36.0047 -79.5153 255° West  Level FlightAware Approximate
Mon 03:45:00 PM 35.9925 -79.5714 255° West  Level FlightAware Approximate
Mon 03:46:00 PM 35.9803 -79.6275 255° West  Level FlightAware Approximate
Mon 03:47:00 PM 35.9680 -79.6836 255° West  Level FlightAware Approximate

Login

Don't have an account? Register now (free) for customized features, flight alerts, and more!